Location: Flensburg
(54.6357°N, 9.5142°E)
Time: 08:45:20
(UTC+01:00)

ISS - Pass Details

Date: 14 November 2017
Orbit: 402 x 407 km, 51.6° (Epoch: 21 November)

Event Time Altitude Azimuth Distance (km) Brightness Sun altitude
Exits shadow 05:45:33 22° 203° (SSW) 930 -2.2 -17.8°
Drops below altitude 10° 05:48:01 10° 154° (SSE) 1,452 -0.6 -17.4°
Sets 05:50:21 0° 139° (SE) 2,309 0.8 -17.1°
